Terug naar catalogus

STARLINK-32598

ActiefCommunicatieVLEO
NORAD 62046·PAYLOAD·🇺🇸 United States

Gelanceerd Nov 21, 2024 vanaf Cape Canaveral Space Force Station

Loading…

Volgende Passages (komende 24 uur)

TLE

VersSource: CelesTrak SupGP

Epoch: Sep 15, 2026, 02:27 UTC

1 62046C 24216Q   26258.10256944 -.00008289  00000+0 -30027-3 0  2588
2 62046  43.0004 266.1404 0001319 264.6582 302.5402 15.27577578    12

Volg STARLINK-32598 in realtime met AllMySat

Download on the App Store